Location: City of Moscow
(46.7306°N, 116.9989°W)
Time: 03:45:26
(UTC+00:00)

Tiangong - Pass Details

Date: 17 February 2026
Orbit: 382 x 391 km, 41.5° (Epoch: 6 March)

Event Time Altitude Azimuth Distance (km) Brightness Sun altitude
Rises 02:47:57 0° 260° (W) 2,255 3.5 -16.6°
Reaches altitude 10° 02:50:10 10° 249° (WSW) 1,399 1.8 -16.9°
Maximum altitude 02:52:57 29° 187° (S) 739 -0.7 -17.4°
Enters shadow 02:53:35 26° 164° (SSE) 786 -0.8 -17.5°
